CZ-2C DEB, 43534

Orbit data source: Space-Track

CZ-2C DEB, 43534 is space debris in SSO originally from a launch on Mon, 09 Jul 2018 UTC launched from the Jiuquan Satellite Launch Center, China (JSC). Debris objects in space refer to the collection of defunct objects orbiting the Earth. Examples of debris include non-operational satellites, rocket bodies, and fragments generated from explosions, collisions, or faulty payload assembly.

Loading next visibility...
Identifier
43534, 2018-056F
Orbit
SSO
Country
Flag of CNCN / PRC
Related business
Manufacturer
CAST?
Mission
Spacecraft
Bus & Motor
Unknown
Mass
~50 kg wet, ~50 kg dry
Launch date (UTC)
2018-07-09 (8 years ago)
Launch vehicle
Unknown
Launch site
Jiuquan Satellite Launch Center, China (JSC)
Object type
Payload
Rocket body
Debris
Shape & HBR
Cone, 1.4 m
Radar Cross Section
3.657 m², Large (>1 m²)

Expand to show TLE details & history
Last TLE update: 2 days ago

TLE from 2 days ago
0 CZ-2C DEB
1 43534U 18056F   26171.40622977  .00018180  00000-0  59185-3 0  9992
2 43534  98.1189   2.4489 0010764   9.9211 350.2239 15.31872125434295
Epoch: 2026-06-20T09:44Z
TLE epoch observation values (Epoch: 2026-06-20T09:44:58.252Z)
Latitude
0.00001°
Longitude
-52.41513°
Altitude
466.046 km
Speed
7.637 km/s
True Right ascension
00h 09m 47s
True Declination
0° 00' 00"
Sunlit
Object was in daylight at epoch
Visualization orbit readout
Latitude
Unknown
Longitude
Unknown
Altitude
Unknown
Speed
Unknown
Apparent Right ascension
Unknown
Apparent Declination
Unknown
Sunlit
N/A
Visualization observer readout
Local Sidereal Time
21:36:57
Azimuth
Unknown
Elevation
Unknown
Doppler factor
Unknown
Orbital elements
Apogee altitude
474.577 km
Perigee altitude
459.841 km
Semi-major axis
6,845.346 km
Eccentricity
0.00108
Inclination
98.1189°
RAAN
2.4489°
Arg. of periapsis
9.9211°
True anomaly
350.20293°
Mean anomaly
350.2239°
Eccentric anomaly
350.21342°
Mean motion
3.83222 °/min
Orbital period
93.94 mins
BSTAR
0.00059185
Loading maneuver chart data...
Computing Atmospheric mass density...
Loading historical data...
Loading historical data...
Loading historical data...
Loading historical data...
Loading historical data...
Loading historical data...
Loading historical data...

Documentation

Showing up to 5 results
|